This is the latest recevied weather packets stored in our database for station/object LU1DNQ-10. If no packets are shown the sender has not sent any weather packets the latest 1 day(s).
| Time | Temp. | Humidity | Pressure | Rain* | Wind** | Luminosity | Snow |
|---|---|---|---|---|---|---|---|
| 1778130410 | 30.56° C | 44% | 993 hPa | - | - | 0 W/m² | - |
| 1778130088 | 30° C | 43% | 993 hPa | - | - | 0 W/m² | - |
| 1778129766 | 30° C | 42% | 992 hPa | - | - | 0 W/m² | - |
| 1778129444 | 29.44° C | 39% | 993 hPa | - | - | 0 W/m² | - |
| 1778129122 | 29.44° C | 33% | 992 hPa | - | - | 0 W/m² | - |
| 1778128800 | 29.44° C | 33% | 991 hPa | - | - | 0 W/m² | - |
| 1778128478 | 30° C | 34% | 991 hPa | - | - | 0 W/m² | - |
| 1778128156 | 30.56° C | 37% | 991 hPa | - | - | 0 W/m² | - |
| 1778127834 | 31.11° C | 42% | 991 hPa | - | - | 0 W/m² | - |
| 1778127512 | 30.56° C | 45% | 991 hPa | - | - | 0 W/m² | - |
| 1778127190 | 30.56° C | 45% | 990 hPa | - | - | 0 W/m² | - |
| 1778126868 | 30.56° C | 44% | 989 hPa | - | - | 0 W/m² | - |
| 1778126546 | 30° C | 43% | 990 hPa | - | - | 0 W/m² | - |
| 1778125258 | 30° C | 36% | 989 hPa | - | - | 0 W/m² | - |
| 1778124936 | 30.56° C | 36% | 988 hPa | - | - | 0 W/m² | - |
| 1778124292 | 31.11° C | 42% | 989 hPa | - | - | 0 W/m² | - |
| 1778123970 | 30.56° C | 45% | 989 hPa | - | - | 0 W/m² | - |
| 1778123648 | 30° C | 44% | 989 hPa | - | - | 0 W/m² | - |
| 1778123326 | 29.44° C | 42% | 989 hPa | - | - | 0 W/m² | - |
| 1778122682 | 28.89° C | 30% | 990 hPa | - | - | 0 W/m² | - |
| 1778122360 | 28.89° C | 29% | 990 hPa | - | - | 0 W/m² | - |
| 1778122038 | 29.44° C | 30% | 990 hPa | - | - | 0 W/m² | - |
| 1778121716 | 29.44° C | 30% | 990 hPa | - | - | 0 W/m² | - |
| 1778120750 | 30.56° C | 37% | 990 hPa | - | - | 0 W/m² | - |
| 1778120428 | 30.56° C | 42% | 990 hPa | - | - | 0 W/m² | - |
* Rain since midnight (hover to see other rain measurements)
** Current wind speed in m/s (hover to see current wind gust speed)